#timestamp,LO_Frequency,Hit,StdDev 
1607452495.3,286047016.3,P
1607452515.1,286047014.1,P
1607452535.9,286047016.6,P
1607452555.7,286047017.2,Y
1607452575.6,286046996.5,P
1607452595.4,286046996.7,N
1607452615.2,286046998.8,N
1607452635.1,286047000.8,N
1607452636.0,286047000.8,N
1607452655.8,286046999.0,N
1607452675.6,286046999.0,N
1607452695.5,286047001.2,N
1607452715.3,286047001.0,N
1607452735.2,286047000.7,N
1607452755.9,286046999.9,N
1607452775.7,286047000.2,N
1607452795.6,286047000.3,N
1607452815.4,286046999.8,N
1607452835.2,286047002.3,N
1607452855.1,286047000.3,N
1607452856.0,286047000.3,N
1607452875.8,286047000.0,N
1607452895.7,286047002.3,N
1607452915.5,286047001.6,N
1607452935.3,286047000.3,N
1607452955.2,286047002.4,N
1607452975.0,286047002.2,N
1607452975.9,286047002.2,N
1607452995.8,286047000.2,N
1607453015.6,286047000.6,N
1607453035.4,286047000.5,N
1607453055.3,286047000.8,N
1607453075.1,286047000.6,N
1607453095.8,286047002.6,N
1607453115.7,286046999.7,N
1607453135.5,286047001.8,N
1607453155.4,286047004.2,Y
1607453175.2,286047003.4,P
1607453195.0,286047001.3,N
1607453195.9,286047001.3,N
1607453215.8,286047002.4,N
1607453235.6,286047000.6,N
1607453255.5,286046999.0,N
1607453275.3,286046998.3,N
1607453295.1,286046998.5,N
1607453315.9,286047002.4,N
1607453335.7,286047002.5,N
1607453355.5,286047001.6,N
1607453375.4,286047002.5,N
1607453395.2,286047000.2,N
1607453415.1,286046999.9,N
1607453416.0,286046999.9,N
1607453435.8,286047001.6,N
1607453455.6,286047001.6,N
1607453475.5,286047001.3,N
1607453495.3,286047000.3,N
1607453515.2,286046999.9,N
1607453535.9,286047004.3,Y
1607453555.7,286047002.6,P
1607453575.6,286047000.7,N
1607453595.4,286046998.8,N
1607453615.2,286047000.5,N
1607453635.1,286046999.8,N
1607453636.0,286046999.8,N
1607453655.8,286047002.4,N
1607453675.7,286047003.9,Y
1607453695.5,286047004.1,P
1607453715.3,286047001.3,N
1607453735.2,286047003.4,N
1607453755.0,286047003.0,N
1607453755.9,286047003.0,N
1607453775.8,286047005.7,Y
1607453795.6,286047002.5,P
1607453815.4,286047000.2,P
1607453835.3,286046999.2,N
1607453855.1,286046998.2,N
1607453875.8,286047000.5,N
1607453895.7,286047001.2,N
1607453915.5,286047000.7,N
1607453935.4,286046998.4,N
1607453955.2,286047000.9,N
1607453975.0,286046999.7,N
1607453975.9,286046999.7,N
1607453995.8,286047001.3,N
